Volver al catálogo

COSMOS 1754

ActivoNavegaciónLEO
NORAD 16764·PAYLOAD·🇷🇺 Russia

Lanzado Jun 6, 1986 desde Plesetsk Cosmodrome

Loading…

Próximos Pases (próximas 24 horas)

TLE

ActualizadoSource: Space-Track

Época: Sep 14, 2026, 08:28 UTC

1 16764U 86042G   26257.35340211 -.00000008  00000-0  54711-4 0  9996
2 16764  74.0154 108.3090 0020786 237.9877 295.5520 12.52612469666255

Sigue COSMOS 1754 en tiempo real con AllMySat

Download on the App Store